,,PA_Meas_PMT16A,,PR_Meas_QMR101_102,,RH_Meas_QMH101,,SR_Meas_QMS101,,TA_Meas_QMH101,,GenWind,,GenWind,
time,status,PA,status,PR,status,RH,status,SR,status,TA,status,DirAvg,status,SpdAvg,
2013-09-15, 00:00:04,VALID,918.514,VALID,0,VALID,96.4438,VALID,0,VALID,19.4103,VALID,96,VALID,0,
2013-09-15, 00:01:04,VALID,918.502,VALID,0,VALID,96.4438,VALID,0,VALID,19.3908,VALID,96,VALID,0,
2013-09-15, 00:02:04,VALID,918.488,VALID,0,VALID,96.4667,VALID,0,VALID,19.3923,VALID,97,VALID,0,
2013-09-15, 00:03:04,VALID,918.465,VALID,0,VALID,96.4286,VALID,0,VALID,19.3533,VALID,97,VALID,0,
2013-09-15, 00:04:04,VALID,918.447,VALID,0,VALID,96.4057,VALID,0,VALID,19.3323,VALID,97,VALID,0,
2013-09-15, 00:05:04,VALID,918.459,VALID,0,VALID,96.4057,VALID,0,VALID,19.3518,VALID,97,VALID,0,
2013-09-15, 00:06:04,VALID,918.471,VALID,0,VALID,96.3676,VALID,0,VALID,19.3533,VALID,96,VALID,0,
2013-09-15, 00:07:04,VALID,918.435,VALID,0,VALID,96.36,VALID,0,VALID,19.3128,VALID,97,VALID,0,
2013-09-15, 00:08:04,VALID,918.479,VALID,0,VALID,96.3371,VALID,0,VALID,19.3323,VALID,96,VALID,0,
2013-09-15, 00:09:04,VALID,918.45,VALID,0.2,VALID,96.3219,VALID,0,VALID,19.3338,VALID,109,VALID,0,
2013-09-15, 00:10:04,VALID,918.444,VALID,0,VALID,96.3066,VALID,0,VALID,19.3338,VALID,112,VALID,0,
2013-09-15, 00:11:04,VALID,918.412,VALID,0,VALID,96.2837,VALID,0,VALID,19.3338,VALID,117,VALID,0,
2013-09-15, 00:12:04,VALID,918.391,VALID,0,VALID,96.3066,VALID,0,VALID,19.3323,VALID,117,VALID,0,
2013-09-15, 00:13:04,VALID,918.373,VALID,0,VALID,96.3295,VALID,0,VALID,19.3338,VALID,116,VALID,0,
2013-09-15, 00:14:04,VALID,918.344,VALID,0,VALID,96.2837,VALID,0,VALID,19.3128,VALID,116,VALID,0,
2013-09-15, 00:15:04,VALID,918.304,VALID,0,VALID,96.2914,VALID,0,VALID,19.3128,VALID,102,VALID,0,
2013-09-15, 00:16:04,VALID,918.308,VALID,0,VALID,96.2837,VALID,0,VALID,19.2948,VALID,100,VALID,0,
2013-09-15, 00:17:04,VALID,918.272,VALID,0,VALID,96.2837,VALID,0,VALID,19.2933,VALID,100,VALID,0,
2013-09-15, 00:18:04,VALID,918.279,VALID,0,VALID,96.2837,VALID,0,VALID,19.2948,VALID,100,VALID,0,
2013-09-15, 00:19:04,VALID,918.222,VALID,0,VALID,96.2837,VALID,0,VALID,19.2753,VALID,100,VALID,0,
2013-09-15, 00:20:04,VALID,918.211,VALID,0,VALID,96.299,VALID,0,VALID,19.2948,VALID,100,VALID,0,
2013-09-15, 00:21:04,VALID,918.155,VALID,0,VALID,96.2914,VALID,0,VALID,19.2558,VALID,100,VALID,0,
2013-09-15, 00:22:04,VALID,918.157,VALID,0,VALID,96.299,VALID,0,VALID,19.2753,VALID,100,VALID,0,
2013-09-15, 00:23:04,VALID,918.122,VALID,0,VALID,96.299,VALID,0,VALID,19.2363,VALID,100,VALID,0,
2013-09-15, 00:24:04,VALID,918.103,VALID,0,VALID,96.299,VALID,0,VALID,19.2363,VALID,100,VALID,0,
2013-09-15, 00:25:04,VALID,918.132,VALID,0,VALID,96.2914,VALID,0,VALID,19.2363,VALID,101,VALID,0,
2013-09-15, 00:26:04,VALID,918.097,VALID,0,VALID,96.2837,VALID,0,VALID,19.1973,VALID,103,VALID,0,
2013-09-15, 00:27:04,VALID,918.152,VALID,0,VALID,96.2685,VALID,0,VALID,19.1778,VALID,105,VALID,0,
2013-09-15, 00:28:04,VALID,918.114,VALID,0,VALID,96.2837,VALID,0,VALID,19.1388,VALID,103,VALID,0,
2013-09-15, 00:29:04,VALID,918.15,VALID,0,VALID,96.2685,VALID,0,VALID,19.1388,VALID,102,VALID,0,
2013-09-15, 00:30:04,VALID,918.128,VALID,0.2,VALID,96.238,VALID,0,VALID,19.1193,VALID,85,VALID,0,
2013-09-15, 00:31:04,VALID,918.101,VALID,0,VALID,96.1923,VALID,0,VALID,19.0998,VALID,100,VALID,0,
2013-09-15, 00:32:04,VALID,918.089,VALID,0,VALID,96.1389,VALID,0,VALID,19.0593,VALID,83,VALID,0,
2013-09-15, 00:33:04,VALID,918.092,VALID,0,VALID,96.0474,VALID,0,VALID,19.0593,VALID,69,VALID,0,
2013-09-15, 00:34:04,VALID,918.102,VALID,0,VALID,95.9559,VALID,0,VALID,19.0803,VALID,89,VALID,0,
2013-09-15, 00:35:04,VALID,918.091,VALID,0,VALID,95.8873,VALID,0,VALID,19.0803,VALID,110,VALID,0,
2013-09-15, 00:36:04,VALID,918.109,VALID,0,VALID,95.773,VALID,0,VALID,19.0998,VALID,125,VALID,0,
2013-09-15, 00:37:04,VALID,918.098,VALID,0,VALID,95.7349,VALID,0,VALID,19.0803,VALID,125,VALID,0,
2013-09-15, 00:38:04,VALID,918.088,VALID,0,VALID,95.6967,VALID,0,VALID,19.0998,VALID,125,VALID,0,
2013-09-15, 00:39:04,VALID,918.06,VALID,0,VALID,95.6586,VALID,0,VALID,19.0998,VALID,125,VALID,0,
2013-09-15, 00:40:04,VALID,918.06,VALID,0,VALID,95.7044,VALID,0,VALID,19.1193,VALID,125,VALID,0,
2013-09-15, 00:41:04,VALID,918.02,VALID,0,VALID,95.6586,VALID,0,VALID,19.0788,VALID,125,VALID,0,
2013-09-15, 00:42:04,VALID,917.992,VALID,0,VALID,95.5824,VALID,0,VALID,19.0803,VALID,125,VALID,0,
2013-09-15, 00:43:04,VALID,917.966,VALID,0,VALID,95.5138,VALID,0,VALID,19.0803,VALID,125,VALID,0,
2013-09-15, 00:44:04,VALID,917.959,VALID,0,VALID,95.4909,VALID,0,VALID,19.0593,VALID,125,VALID,0,
2013-09-15, 00:45:04,VALID,917.945,VALID,0,VALID,95.4604,VALID,0,VALID,19.0803,VALID,133,VALID,0,
2013-09-15, 00:46:04,VALID,917.95,VALID,0,VALID,95.4757,VALID,0,VALID,19.0788,VALID,133,VALID,0,
2013-09-15, 00:47:04,VALID,917.933,VALID,0,VALID,95.4604,VALID,0,VALID,19.0788,VALID,133,VALID,0,
2013-09-15, 00:48:04,VALID,917.931,VALID,0,VALID,95.4223,VALID,0.107441,VALID,19.0998,VALID,133,VALID,0,
2013-09-15, 00:49:04,VALID,917.912,VALID,0,VALID,95.4452,VALID,0,VALID,19.0998,VALID,133,VALID,0,
2013-09-15, 00:50:04,VALID,917.884,VALID,0,VALID,95.3613,VALID,0,VALID,19.0998,VALID,131,VALID,0,
2013-09-15, 00:51:04,VALID,917.869,VALID,0,VALID,95.2851,VALID,0,VALID,19.0998,VALID,114,VALID,0,
2013-09-15, 00:52:04,VALID,917.863,VALID,0,VALID,95.2241,VALID,0,VALID,19.0593,VALID,114,VALID,0,
2013-09-15, 00:53:04,VALID,917.838,VALID,0,VALID,95.1555,VALID,0,VALID,19.0803,VALID,114,VALID,0,
2013-09-15, 00:54:04,VALID,917.827,VALID,0,VALID,95.1021,VALID,0,VALID,19.0803,VALID,114,VALID,0,
2013-09-15, 00:55:04,VALID,917.825,VALID,0,VALID,95.0411,VALID,0,VALID,19.0803,VALID,82,VALID,0,
2013-09-15, 00:56:04,VALID,917.82,VALID,0,VALID,94.9573,VALID,0,VALID,19.0608,VALID,83,VALID,0,
2013-09-15, 00:57:04,VALID,917.823,VALID,0,VALID,94.9268,VALID,0,VALID,19.0608,VALID,108,VALID,0,
2013-09-15, 00:58:04,VALID,917.801,VALID,0,VALID,94.8963,VALID,0,VALID,19.0398,VALID,128,VALID,0,
2013-09-15, 00:59:04,VALID,917.823,VALID,0,VALID,94.9725,VALID,0,VALID,19.0803,VALID,130,VALID,0,
2013-09-15, 01:00:04,VALID,917.807,VALID,0,VALID,95.0792,VALID,0,VALID,19.0788,VALID,130,VALID,0,
2013-09-15, 01:01:04,VALID,917.788,VALID,0,VALID,95.2165,VALID,0,VALID,19.1178,VALID,130,VALID,0,
2013-09-15, 01:02:04,VALID,917.759,VALID,0,VALID,95.3156,VALID,0.107441,VALID,19.1388,VALID,137,VALID,0,
2013-09-15, 01:03:04,VALID,917.73,VALID,0,VALID,95.4299,VALID,0,VALID,19.1178,VALID,142,VALID,0,
2013-09-15, 01:04:04,VALID,917.72,VALID,0,VALID,95.5062,VALID,0,VALID,19.1792,VALID,138,VALID,0,
2013-09-15, 01:05:04,VALID,917.712,VALID,0,VALID,95.5748,VALID,0,VALID,19.1178,VALID,137,VALID,0,
2013-09-15, 01:06:04,VALID,917.715,VALID,0.2,VALID,95.6129,VALID,0,VALID,19.1583,VALID,126,VALID,0,
2013-09-15, 01:07:04,VALID,917.681,VALID,0,VALID,95.6434,VALID,0,VALID,19.1388,VALID,125,VALID,0,
2013-09-15, 01:08:04,VALID,917.669,VALID,0,VALID,95.6739,VALID,0,VALID,19.1388,VALID,125,VALID,0,
2013-09-15, 01:09:04,VALID,917.655,VALID,0,VALID,95.6891,VALID,0,VALID,19.1388,VALID,97,VALID,0,
2013-09-15, 01:10:04,VALID,917.606,VALID,0,VALID,95.7349,VALID,0,VALID,19.1388,VALID,97,VALID,0,
2013-09-15, 01:11:04,VALID,917.583,VALID,0,VALID,95.7654,VALID,0,VALID,19.1388,VALID,97,VALID,0,
2013-09-15, 01:12:04,VALID,917.574,VALID,0,VALID,95.7806,VALID,0,VALID,19.1193,VALID,57,VALID,0,
2013-09-15, 01:13:04,VALID,917.543,VALID,0,VALID,95.7425,VALID,0,VALID,19.0803,VALID,31,VALID,0,
2013-09-15, 01:14:04,VALID,917.53,VALID,0,VALID,95.7272,VALID,0,VALID,19.0608,VALID,360,VALID,0,
2013-09-15, 01:15:04,VALID,917.514,VALID,0,VALID,95.6739,VALID,0,VALID,19.0398,VALID,360,VALID,0,
2013-09-15, 01:16:04,VALID,917.496,VALID,0,VALID,95.6205,VALID,0,VALID,19.0008,VALID,360,VALID,0,
2013-09-15, 01:17:04,VALID,917.493,VALID,0,VALID,95.6739,VALID,0,VALID,19.0413,VALID,360,VALID,0,
2013-09-15, 01:18:04,VALID,917.474,VALID,0,VALID,95.6891,VALID,0,VALID,19.0218,VALID,19,VALID,0,
2013-09-15, 01:19:04,VALID,917.45,VALID,0,VALID,95.7272,VALID,0,VALID,18.9814,VALID,27,VALID,0,
2013-09-15, 01:20:04,VALID,917.501,VALID,0,VALID,95.7654,VALID,0,VALID,18.9814,VALID,30,VALID,0,
2013-09-15, 01:21:04,VALID,917.47,VALID,0,VALID,95.8263,VALID,0,VALID,19.0037,VALID,42,VALID,0,
2013-09-15, 01:22:04,VALID,917.444,VALID,0,VALID,95.9026,VALID,0,VALID,18.9633,VALID,45,VALID,0,
2013-09-15, 01:23:04,VALID,917.429,VALID,0,VALID,95.9559,VALID,0,VALID,18.9229,VALID,45,VALID,0,
2013-09-15, 01:24:04,VALID,917.427,VALID,0,VALID,96.0169,VALID,0,VALID,18.9438,VALID,147,VALID,0,
2013-09-15, 01:25:04,VALID,917.374,VALID,0,VALID,96.0474,VALID,0,VALID,18.9034,VALID,102,VALID,0,
2013-09-15, 01:26:04,VALID,917.381,VALID,0,VALID,96.1236,VALID,0,VALID,18.9424,VALID,86,VALID,0,
2013-09-15, 01:27:04,VALID,917.338,VALID,0,VALID,96.1694,VALID,0,VALID,18.9633,VALID,104,VALID,0,
2013-09-15, 01:28:04,VALID,917.338,VALID,0,VALID,96.2075,VALID,0,VALID,18.9633,VALID,141,VALID,0,
2013-09-15, 01:29:04,VALID,917.365,VALID,0,VALID,96.2304,VALID,0,VALID,19.0023,VALID,135,VALID,0,
2013-09-15, 01:30:04,VALID,917.396,VALID,0,VALID,96.3066,VALID,0,VALID,19.0413,VALID,138,VALID,0,
2013-09-15, 01:31:04,VALID,917.364,VALID,0,VALID,96.36,VALID,0,VALID,19.0398,VALID,119,VALID,0,
2013-09-15, 01:32:04,VALID,917.367,VALID,0,VALID,96.3752,VALID,0,VALID,19.0398,VALID,139,VALID,0,
2013-09-15, 01:33:04,VALID,917.361,VALID,0,VALID,96.4057,VALID,0,VALID,19.0608,VALID,139,VALID,0,
2013-09-15, 01:34:04,VALID,917.35,VALID,0,VALID,96.421,VALID,0,VALID,19.0608,VALID,133,VALID,0,
2013-09-15, 01:35:04,VALID,917.318,VALID,0,VALID,96.4362,VALID,0,VALID,19.0608,VALID,120,VALID,0,
2013-09-15, 01:36:04,VALID,917.328,VALID,0,VALID,96.4591,VALID,0,VALID,19.0413,VALID,114,VALID,0,
2013-09-15, 01:37:04,VALID,917.325,VALID,0,VALID,96.4591,VALID,0,VALID,19.0203,VALID,132,VALID,0,
2013-09-15, 01:38:04,VALID,917.275,VALID,0,VALID,96.4743,VALID,0,VALID,19.0413,VALID,133,VALID,0,
2013-09-15, 01:39:04,VALID,917.306,VALID,0,VALID,96.4896,VALID,0,VALID,19.0203,VALID,127,VALID,0,
2013-09-15, 01:40:04,VALID,917.253,VALID,0,VALID,96.5124,VALID,0,VALID,19.0413,VALID,114,VALID,0,
2013-09-15, 01:41:04,VALID,917.236,VALID,0,VALID,96.4972,VALID,0,VALID,19.0608,VALID,120,VALID,0,
2013-09-15, 01:42:04,VALID,917.189,VALID,0,VALID,96.5277,VALID,0,VALID,19.0398,VALID,121,VALID,0,
2013-09-15, 01:43:04,VALID,917.206,VALID,0,VALID,96.5506,VALID,0,VALID,19.0413,VALID,128,VALID,0,
2013-09-15, 01:44:04,VALID,917.186,VALID,0,VALID,96.5506,VALID,0,VALID,19.0608,VALID,135,VALID,0,
2013-09-15, 01:45:04,VALID,917.168,VALID,0,VALID,96.5734,VALID,0,VALID,19.0593,VALID,141,VALID,0,
2013-09-15, 01:46:04,VALID,917.157,VALID,0,VALID,96.5734,VALID,0,VALID,19.0398,VALID,136,VALID,0,
2013-09-15, 01:47:04,VALID,917.164,VALID,0,VALID,96.5811,VALID,0,VALID,19.0398,VALID,133,VALID,0,
2013-09-15, 01:48:04,VALID,917.158,VALID,0,VALID,96.5963,VALID,0,VALID,19.0413,VALID,138,VALID,0,
2013-09-15, 01:49:04,VALID,917.154,VALID,0,VALID,96.6115,VALID,0,VALID,19.0398,VALID,123,VALID,0,
2013-09-15, 01:50:04,VALID,917.14,VALID,0,VALID,96.6344,VALID,0,VALID,19.0608,VALID,123,VALID,0,
2013-09-15, 01:51:04,VALID,917.159,VALID,0,VALID,96.6497,VALID,0,VALID,19.0608,VALID,132,VALID,0,
2013-09-15, 01:52:04,VALID,917.115,VALID,0,VALID,96.6268,VALID,0,VALID,19.0413,VALID,116,VALID,0,
2013-09-15, 01:53:04,VALID,917.102,VALID,0,VALID,96.6497,VALID,0,VALID,19.0413,VALID,121,VALID,0,
2013-09-15, 01:54:04,VALID,917.116,VALID,0,VALID,96.642,VALID,0,VALID,19.0218,VALID,122,VALID,0,
2013-09-15, 01:55:04,VALID,917.076,VALID,0,VALID,96.6497,VALID,0,VALID,19.0413,VALID,117,VALID,0,
2013-09-15, 01:56:04,VALID,917.087,VALID,0,VALID,96.6649,VALID,0,VALID,19.0203,VALID,112,VALID,0,
2013-09-15, 01:57:04,VALID,917.057,VALID,0,VALID,96.6649,VALID,0,VALID,19.0218,VALID,108,VALID,0,
2013-09-15, 01:58:04,VALID,917.069,VALID,0,VALID,96.6649,VALID,0,VALID,19.0218,VALID,120,VALID,0,
2013-09-15, 01:59:04,VALID,917.068,VALID,0,VALID,96.6649,VALID,0,VALID,19.0218,VALID,118,VALID,0,
2013-09-15, 02:00:04,VALID,917.065,VALID,0,VALID,96.6878,VALID,0,VALID,19.0218,VALID,100,VALID,0,
2013-09-15, 02:01:04,VALID,917.083,VALID,0,VALID,96.703,VALID,0,VALID,19.0008,VALID,109,VALID,0,
2013-09-15, 02:02:04,VALID,917.064,VALID,0,VALID,96.703,VALID,0,VALID,19.0023,VALID,123,VALID,0,
2013-09-15, 02:03:04,VALID,917.058,VALID,0,VALID,96.703,VALID,0,VALID,19.0023,VALID,93,VALID,0,
2013-09-15, 02:04:04,VALID,917.067,VALID,0,VALID,96.6802,VALID,0,VALID,19.0023,VALID,93,VALID,0,
2013-09-15, 02:05:04,VALID,917.058,VALID,0,VALID,96.7107,VALID,0,VALID,19.0023,VALID,93,VALID,0,
2013-09-15, 02:06:04,VALID,917.07,VALID,0,VALID,96.7183,VALID,0,VALID,19.0023,VALID,93,VALID,0,
2013-09-15, 02:07:04,VALID,917.029,VALID,0,VALID,96.7107,VALID,0,VALID,19.0023,VALID,106,VALID,0,
2013-09-15, 02:08:04,VALID,917.036,VALID,0,VALID,96.7259,VALID,0,VALID,19.0023,VALID,106,VALID,0,
2013-09-15, 02:09:04,VALID,917.003,VALID,0,VALID,96.7259,VALID,0,VALID,19.0023,VALID,105,VALID,0,
2013-09-15, 02:10:04,VALID,917.011,VALID,0,VALID,96.7564,VALID,0,VALID,19.0218,VALID,109,VALID,0,
2013-09-15, 02:11:04,VALID,916.99,VALID,0,VALID,96.7488,VALID,0,VALID,19.0218,VALID,116,VALID,0,
2013-09-15, 02:12:04,VALID,917.01,VALID,0,VALID,96.764,VALID,0,VALID,19.0218,VALID,95,VALID,0,
2013-09-15, 02:13:04,VALID,916.999,VALID,0,VALID,96.764,VALID,0,VALID,19.0023,VALID,94,VALID,0,
2013-09-15, 02:14:04,VALID,917.009,VALID,0,VALID,96.764,VALID,0,VALID,19.0023,VALID,94,VALID,0,
2013-09-15, 02:15:04,VALID,916.98,VALID,0,VALID,96.764,VALID,0,VALID,18.9828,VALID,94,VALID,0,
2013-09-15, 02:16:04,VALID,916.966,VALID,0,VALID,96.764,VALID,0,VALID,18.9828,VALID,95,VALID,0,
2013-09-15, 02:17:04,VALID,916.986,VALID,0,VALID,96.7716,VALID,0,VALID,18.9633,VALID,101,VALID,0,
2013-09-15, 02:18:04,VALID,916.965,VALID,0,VALID,96.7869,VALID,0,VALID,18.9619,VALID,101,VALID,0,
2013-09-15, 02:19:04,VALID,916.962,VALID,0,VALID,96.7716,VALID,0,VALID,18.9633,VALID,101,VALID,0,
2013-09-15, 02:20:04,VALID,916.973,VALID,0,VALID,96.764,VALID,0,VALID,18.9842,VALID,101,VALID,0,
2013-09-15, 02:21:04,VALID,916.967,VALID,0,VALID,96.7716,VALID,0,VALID,19.0023,VALID,100,VALID,0,
2013-09-15, 02:22:04,VALID,916.97,VALID,0,VALID,96.7869,VALID,0,VALID,19.0023,VALID,95,VALID,0,
2013-09-15, 02:23:04,VALID,916.979,VALID,0,VALID,96.7793,VALID,0,VALID,19.0218,VALID,95,VALID,0,
2013-09-15, 02:24:04,VALID,916.972,VALID,0,VALID,96.7716,VALID,0,VALID,18.9828,VALID,95,VALID,0,
2013-09-15, 02:25:04,VALID,916.982,VALID,0,VALID,96.7869,VALID,0,VALID,19.0023,VALID,95,VALID,0,
2013-09-15, 02:26:04,VALID,916.987,VALID,0,VALID,96.7869,VALID,0,VALID,19.0413,VALID,95,VALID,0,
2013-09-15, 02:27:04,VALID,916.994,VALID,0,VALID,96.7793,VALID,0,VALID,19.0218,VALID,95,VALID,0,
2013-09-15, 02:28:04,VALID,917.011,VALID,0,VALID,96.7793,VALID,0,VALID,19.0413,VALID,95,VALID,0,
2013-09-15, 02:29:04,VALID,916.996,VALID,0.2,VALID,96.7793,VALID,0,VALID,19.0203,VALID,95,VALID,0,
2013-09-15, 02:30:04,VALID,916.985,VALID,0,VALID,96.7945,VALID,0,VALID,19.0413,VALID,95,VALID,0,
2013-09-15, 02:31:04,VALID,916.963,VALID,0,VALID,96.7945,VALID,0,VALID,19.0413,VALID,95,VALID,0,
2013-09-15, 02:32:04,VALID,916.966,VALID,0,VALID,96.7716,VALID,0,VALID,19.0218,VALID,95,VALID,0,
2013-09-15, 02:33:04,VALID,916.966,VALID,0,VALID,96.8021,VALID,0,VALID,19.0218,VALID,95,VALID,0,
2013-09-15, 02:34:04,VALID,916.991,VALID,0,VALID,96.7716,VALID,0,VALID,19.0023,VALID,95,VALID,0,
2013-09-15, 02:35:04,VALID,917.029,VALID,0,VALID,96.7869,VALID,0,VALID,19.0218,VALID,95,VALID,0,
2013-09-15, 02:36:04,VALID,916.982,VALID,0,VALID,96.7945,VALID,0,VALID,19.0008,VALID,95,VALID,0,
2013-09-15, 02:37:04,VALID,917.023,VALID,0,VALID,96.7945,VALID,0,VALID,19.0413,VALID,95,VALID,0,
2013-09-15, 02:38:04,VALID,917.004,VALID,0.2,VALID,96.8021,VALID,0,VALID,19.0218,VALID,95,VALID,0,
2013-09-15, 02:39:04,VALID,917.027,VALID,0,VALID,96.8021,VALID,0,VALID,19.0218,VALID,95,VALID,0,
2013-09-15, 02:40:04,VALID,917.024,VALID,0,VALID,96.825,VALID,0,VALID,19.0817,VALID,95,VALID,0,
2013-09-15, 02:41:04,VALID,917.023,VALID,0.2,VALID,96.8326,VALID,0,VALID,19.0608,VALID,95,VALID,0,
2013-09-15, 02:42:04,VALID,917.038,VALID,0,VALID,96.8326,VALID,0,VALID,19.0023,VALID,95,VALID,0,
2013-09-15, 02:43:04,VALID,917.034,VALID,0,VALID,96.825,VALID,0,VALID,18.9828,VALID,95,VALID,0,
2013-09-15, 02:44:04,VALID,917.04,VALID,0.2,VALID,96.8174,VALID,0,VALID,18.9633,VALID,95,VALID,0,
2013-09-15, 02:45:04,VALID,917.013,VALID,0,VALID,96.8174,VALID,0,VALID,18.9633,VALID,95,VALID,0,
2013-09-15, 02:46:04,VALID,916.977,VALID,0,VALID,96.8326,VALID,0,VALID,18.9633,VALID,95,VALID,0,
2013-09-15, 02:47:04,VALID,917.015,VALID,0,VALID,96.8326,VALID,0,VALID,18.9438,VALID,95,VALID,0,
2013-09-15, 02:48:04,VALID,916.981,VALID,0,VALID,96.8403,VALID,0,VALID,18.9243,VALID,95,VALID,0,
2013-09-15, 02:49:04,VALID,916.996,VALID,0,VALID,96.825,VALID,0,VALID,18.9048,VALID,95,VALID,0,
2013-09-15, 02:50:04,VALID,916.959,VALID,0.2,VALID,96.8403,VALID,0,VALID,18.8853,VALID,95,VALID,0,
2013-09-15, 02:51:04,VALID,916.954,VALID,0,VALID,96.8479,VALID,0,VALID,18.8867,VALID,95,VALID,0,
2013-09-15, 02:52:04,VALID,916.946,VALID,0,VALID,96.8479,VALID,0,VALID,18.8853,VALID,95,VALID,0,
2013-09-15, 02:53:04,VALID,916.941,VALID,0,VALID,96.8555,VALID,0,VALID,18.8658,VALID,95,VALID,0,
2013-09-15, 02:54:04,VALID,916.94,VALID,0,VALID,96.886,VALID,0,VALID,18.8658,VALID,95,VALID,0,
2013-09-15, 02:55:04,VALID,916.891,VALID,0.2,VALID,96.8784,VALID,0,VALID,18.8658,VALID,95,VALID,0,
2013-09-15, 02:56:04,VALID,916.886,VALID,0,VALID,96.8784,VALID,0,VALID,18.9048,VALID,95,VALID,0,
2013-09-15, 02:57:04,VALID,916.867,VALID,0,VALID,96.8936,VALID,0,VALID,18.9048,VALID,95,VALID,0,
2013-09-15, 02:58:04,VALID,916.846,VALID,0,VALID,96.886,VALID,0,VALID,18.8853,VALID,95,VALID,0,
2013-09-15, 02:59:04,VALID,916.836,VALID,0.2,VALID,96.886,VALID,0,VALID,18.8463,VALID,95,VALID,0,
2013-09-15, 03:00:04,VALID,916.817,VALID,0,VALID,96.8936,VALID,0,VALID,18.8463,VALID,95,VALID,0,
2013-09-15, 03:01:04,VALID,916.781,VALID,0,VALID,96.9089,VALID,0,VALID,18.8268,VALID,95,VALID,0,
2013-09-15, 03:02:04,VALID,916.754,VALID,0,VALID,96.9012,VALID,0,VALID,18.8268,VALID,37,VALID,0,
2013-09-15, 03:03:04,VALID,916.739,VALID,0,VALID,96.8936,VALID,0,VALID,18.8268,VALID,37,VALID,0,
2013-09-15, 03:04:04,VALID,916.713,VALID,0,VALID,96.9241,VALID,0,VALID,18.8268,VALID,37,VALID,0,
2013-09-15, 03:05:04,VALID,916.716,VALID,0,VALID,96.9394,VALID,0,VALID,18.8477,VALID,37,VALID,0,
2013-09-15, 03:06:04,VALID,916.703,VALID,0,VALID,96.9394,VALID,0,VALID,18.8867,VALID,37,VALID,0,
2013-09-15, 03:07:04,VALID,916.703,VALID,0,VALID,96.9317,VALID,0,VALID,18.8463,VALID,37,VALID,0,
2013-09-15, 03:08:04,VALID,916.704,VALID,0,VALID,96.9317,VALID,0,VALID,18.8268,VALID,37,VALID,0,
2013-09-15, 03:09:04,VALID,916.675,VALID,0,VALID,96.9241,VALID,0,VALID,18.8268,VALID,37,VALID,0,
2013-09-15, 03:10:04,VALID,916.65,VALID,0,VALID,96.9317,VALID,0,VALID,18.8477,VALID,37,VALID,0,
2013-09-15, 03:11:04,VALID,916.644,VALID,0,VALID,96.9317,VALID,0,VALID,18.8268,VALID,37,VALID,0,
2013-09-15, 03:12:04,VALID,916.625,VALID,0,VALID,96.9546,VALID,0,VALID,18.8073,VALID,37,VALID,0,
2013-09-15, 03:13:04,VALID,916.613,VALID,0,VALID,96.947,VALID,0,VALID,18.7878,VALID,37,VALID,0,
2013-09-15, 03:14:04,VALID,916.63,VALID,0,VALID,96.9622,VALID,0,VALID,18.8073,VALID,37,VALID,0,
2013-09-15, 03:15:04,VALID,916.609,VALID,0,VALID,96.9622,VALID,0,VALID,18.8282,VALID,37,VALID,0,
2013-09-15, 03:16:04,VALID,916.647,VALID,0,VALID,96.9546,VALID,0,VALID,18.8073,VALID,37,VALID,0,
2013-09-15, 03:17:04,VALID,916.64,VALID,0,VALID,96.9546,VALID,0,VALID,18.8268,VALID,37,VALID,0,
2013-09-15, 03:18:04,VALID,916.659,VALID,0,VALID,96.9622,VALID,0,VALID,18.8073,VALID,37,VALID,0,
2013-09-15, 03:19:04,VALID,916.659,VALID,0,VALID,96.9698,VALID,0,VALID,18.8073,VALID,37,VALID,0,
2013-09-15, 03:20:04,VALID,916.64,VALID,0,VALID,96.9622,VALID,0,VALID,18.8463,VALID,37,VALID,0,
2013-09-15, 03:21:04,VALID,916.657,VALID,0,VALID,96.9698,VALID,0,VALID,18.8672,VALID,37,VALID,0,
2013-09-15, 03:22:04,VALID,916.634,VALID,0,VALID,96.9775,VALID,0,VALID,18.8463,VALID,37,VALID,0,
2013-09-15, 03:23:04,VALID,916.618,VALID,0,VALID,96.9927,VALID,0,VALID,18.8463,VALID,37,VALID,0,
2013-09-15, 03:24:04,VALID,916.624,VALID,0.2,VALID,96.9698,VALID,0,VALID,18.8658,VALID,37,VALID,0,
2013-09-15, 03:25:04,VALID,916.612,VALID,0,VALID,96.9698,VALID,0,VALID,18.8658,VALID,37,VALID,0,
2013-09-15, 03:26:04,VALID,916.592,VALID,0,VALID,96.9698,VALID,0,VALID,18.8658,VALID,37,VALID,0,
2013-09-15, 03:27:04,VALID,916.61,VALID,0,VALID,96.9927,VALID,0,VALID,18.9062,VALID,37,VALID,0,
2013-09-15, 03:28:04,VALID,916.595,VALID,0,VALID,96.9927,VALID,0,VALID,18.8853,VALID,37,VALID,0,
2013-09-15, 03:29:04,VALID,916.608,VALID,0,VALID,97.008,VALID,0,VALID,18.8658,VALID,37,VALID,0,
2013-09-15, 03:30:04,VALID,916.587,VALID,0,VALID,97.0003,VALID,0,VALID,18.8658,VALID,37,VALID,0,
2013-09-15, 03:31:04,VALID,916.606,VALID,0,VALID,96.9851,VALID,0,VALID,18.8658,VALID,37,VALID,0,
2013-09-15, 03:32:04,VALID,916.6,VALID,0,VALID,97.008,VALID,0,VALID,18.8658,VALID,37,VALID,0,
2013-09-15, 03:33:04,VALID,916.591,VALID,0,VALID,97.0003,VALID,0,VALID,18.8463,VALID,37,VALID,0,
2013-09-15, 03:34:04,VALID,916.569,VALID,0,VALID,97.0156,VALID,0,VALID,18.8073,VALID,37,VALID,0,
2013-09-15, 03:35:04,VALID,916.534,VALID,0,VALID,97.0003,VALID,0,VALID,18.8073,VALID,37,VALID,0,
2013-09-15, 03:36:04,VALID,916.55,VALID,0,VALID,97.008,VALID,0,VALID,18.8268,VALID,37,VALID,0,
2013-09-15, 03:37:04,VALID,916.542,VALID,0,VALID,97.0156,VALID,0,VALID,18.8282,VALID,37,VALID,0,
2013-09-15, 03:38:04,VALID,916.509,VALID,0,VALID,97.008,VALID,0,VALID,18.8073,VALID,37,VALID,0,
2013-09-15, 03:39:04,VALID,916.544,VALID,0,VALID,97.0308,VALID,0,VALID,18.8268,VALID,37,VALID,0,
2013-09-15, 03:40:04,VALID,916.531,VALID,0,VALID,97.0156,VALID,0,VALID,18.8268,VALID,37,VALID,0,
2013-09-15, 03:41:04,VALID,916.52,VALID,0,VALID,97.0461,VALID,0,VALID,18.8254,VALID,37,VALID,0,
2013-09-15, 03:42:04,VALID,916.528,VALID,0,VALID,97.0461,VALID,0,VALID,18.8463,VALID,37,VALID,0,
2013-09-15, 03:43:04,VALID,916.544,VALID,0,VALID,97.0308,VALID,0,VALID,18.8268,VALID,37,VALID,0,
2013-09-15, 03:44:04,VALID,916.526,VALID,0,VALID,97.0308,VALID,0,VALID,18.8463,VALID,37,VALID,0,
2013-09-15, 03:45:04,VALID,916.527,VALID,0,VALID,97.0385,VALID,0,VALID,18.8463,VALID,37,VALID,0,
2013-09-15, 03:46:04,VALID,916.519,VALID,0,VALID,97.0461,VALID,0,VALID,18.8254,VALID,37,VALID,0,
2013-09-15, 03:47:04,VALID,916.51,VALID,0,VALID,97.0461,VALID,0,VALID,18.8463,VALID,37,VALID,0,
2013-09-15, 03:48:04,VALID,916.491,VALID,0,VALID,97.0537,VALID,0,VALID,18.8282,VALID,37,VALID,0,
2013-09-15, 03:49:04,VALID,916.493,VALID,0,VALID,97.0613,VALID,0,VALID,18.7683,VALID,37,VALID,0,
2013-09-15, 03:50:04,VALID,916.506,VALID,0,VALID,97.0613,VALID,0,VALID,18.7878,VALID,37,VALID,0,
2013-09-15, 03:51:04,VALID,916.497,VALID,0,VALID,97.0461,VALID,0,VALID,18.7683,VALID,37,VALID,0,
2013-09-15, 03:52:04,VALID,916.512,VALID,0,VALID,97.0537,VALID,0,VALID,18.7683,VALID,37,VALID,0,
2013-09-15, 03:53:04,VALID,916.515,VALID,0,VALID,97.0766,VALID,0,VALID,18.7488,VALID,37,VALID,0,
2013-09-15, 03:54:04,VALID,916.532,VALID,0,VALID,97.0613,VALID,0,VALID,18.7488,VALID,37,VALID,0,
2013-09-15, 03:55:04,VALID,916.536,VALID,0,VALID,97.0537,VALID,0,VALID,18.7293,VALID,37,VALID,0,
2013-09-15, 03:56:04,VALID,916.551,VALID,0,VALID,97.0537,VALID,0,VALID,18.7098,VALID,37,VALID,0,
2013-09-15, 03:57:04,VALID,916.6,VALID,0,VALID,97.0537,VALID,0,VALID,18.7293,VALID,37,VALID,0,
2013-09-15, 03:58:04,VALID,916.582,VALID,0,VALID,97.0537,VALID,0,VALID,18.7293,VALID,37,VALID,0,
2013-09-15, 03:59:04,VALID,916.628,VALID,0,VALID,97.0613,VALID,0,VALID,18.6903,VALID,76,VALID,0,
2013-09-15, 04:00:04,VALID,916.617,VALID,0,VALID,97.069,VALID,0,VALID,18.7098,VALID,176,VALID,0,
2013-09-15, 04:01:04,VALID,916.637,VALID,0,VALID,97.069,VALID,0,VALID,18.7098,VALID,177,VALID,0,